Preview of NWS' New Version of Forecast
This preview is not operational and should not be used for support decisions.

Regional Weather Roundup (RWR)

Issued by National Weather Service (NWS)

                            
000
ASUS46 KPQR 212010
RWROR 

OREGON REGIONAL WEATHER ROUNDUP
NATIONAL WEATHER SERVICE PORTLAND OR
1200 PM PST THU FEB 21 2019

NOTE: "FAIR" INDICATES FEW OR NO CLOUDS BELOW 12,000 FEET WITH
NO SIGNIFICANT WEATHER AND/OR OBSTRUCTIONS TO VISIBILITY.

ORZ001>013-212100-
NORTHWEST OREGON

  
CITY           SKY/WX    TMP DP  RH WIND       PRES   REMARKS
ASTORIA        SUNNY     45  32  60 CALM      30.13S                  
TILLAMOOK      SUNNY     45  34  65 CALM      30.14S                  
NEWPORT        SUNNY     45  34  65 NW5       30.14F                  
PORTLAND       MOSUNNY   39  32  76 NW5       30.14F                  
VANCOUVER WA   MOSUNNY   38  34  85 VRB5      30.14S                  
SCAPPOOSE      SUNNY     39  35  86 SE3       30.14S                  
HILLSBORO      SUNNY     44  31  60 CALM      30.12S                  
AURORA         MOSUNNY   44  33  65 N7        30.12F                  
MCMINNVILLE    SUNNY     42  35  76 SW5       30.12S                  
SALEM          SUNNY     43  31  62 NE6       30.11F                  
CORVALLIS      PTSUNNY   42  34  73 CALM      30.13S                  
EUGENE         MOSUNNY   40  32  73 NE8       30.12S                  
$$

ORZ021-028-212100-
SOUTHWEST OREGON

  
CITY           SKY/WX    TMP DP  RH WIND       PRES   REMARKS
NORTH BEND     SUNNY     45  35  68 N6        30.11S                  
BROOKINGS      SUNNY     48  26  42 VRB5      30.00S                  
ROSEBURG       PTSUNNY   41  30  65 NE6       30.07F                  
SEXTON SUMMIT  FOG       27  25  92 VRB3      29.89S VSB 1/4          
GRANTS PASS    CLOUDY    39  28  65 NW8       30.04                   
MEDFORD        MOSUNNY   32  30  92 SE5       30.02S                  
$$

ORZ014>016-041-212100-
COLUMBIA GORGE

  
CITY           SKY/WX    TMP DP  RH WIND       PRES   REMARKS
TROUTDALE      SUNNY     42  32  67 VRB3      30.13F                  
HOOD RIVER     SUNNY     36  28  75 CALM      30.13S                  
THE DALLES     SUNNY     33  28  81 CALM      30.15S                  
$$

ORZ029>031-041-044-049-050-061>064-502-503-505>511-212100-
EASTERN OREGON

  
CITY           SKY/WX    TMP DP  RH WIND       PRES   REMARKS
MADRAS         NOT AVBL                                               
REDMOND        CLOUDY    30  22  72 NW9       29.99R                  
BEND           MIX PCPN  28  21  74 N6        29.98S                  
PRINEVILLE     FLURRIES  28  21  74 NW9       29.97                   
KLAMATH FALLS  PTSUNNY   29  15  56 N12       29.87F WCI  19          
LAKEVIEW       FLURRIES  24  15  68 N17       29.83R WCI  11          
HERMISTON      SUNNY     35  22  58 N6        30.12R                  
PENDLETON      CLOUDY    29  23  78 NW12      30.06R WCI  19          
JOHN DAY       CLOUDY    27  21  78 W12       29.91  WCI  17          
MEACHAM        CLOUDY    21  18  88 VRB3      29.92S                  
LA GRANDE      CLOUDY    28  20  71 W17       29.96S WCI  16          
BAKER CITY     CLOUDY    33  21  61 N15       29.91S WCI  23          
BURNS          MOSUNNY   30  14  51 W8        29.85S                  
ROME             N/A     29  20  69 N15       29.80S WCI  18          
ONTARIO        CLOUDY    36  23  59 NW3       29.93F                  
$$